Time,TemperatureF,DewpointF,PressureIn,WindDirection,WindDirectionDegrees,WindSpeedMPH,WindSpeedGustMPH,Humidity,HourlyPrecipIn,Conditions,Clouds,dailyrainin,SolarRadiationWatts/m^2,SoftwareType,DateUTC
2013-01-24 00:05:00,11.6,0.0,30.43,North,5,12.0,-999.0,60,-99.99,,,0.00,0,weatherlink.com 1.10,2013-01-24 06:05:00,
2013-01-24 00:21:00,11.2,0.0,30.45,North,355,13.0,-999.0,60,-99.99,,,0.00,0,weatherlink.com 1.10,2013-01-24 06:21:00,
2013-01-24 00:36:00,10.7,0.0,30.46,NNW,342,12.0,-999.0,61,-99.99,,,0.00,0,weatherlink.com 1.10,2013-01-24 06:36:00,
2013-01-24 00:51:00,10.2,-1.0,30.47,NNW,345,13.0,-999.0,62,-99.99,,,0.00,0,weatherlink.com 1.10,2013-01-24 06:51:00,
2013-01-24 01:06:00,9.7,-1.0,30.48,NNW,344,16.0,-999.0,62,-99.99,,,0.00,0,weatherlink.com 1.10,2013-01-24 07:06:00,
2013-01-24 01:21:00,9.3,-1.0,30.48,NNW,346,13.0,-999.0,62,-99.99,,,0.00,0,weatherlink.com 1.10,2013-01-24 07:21:00,
2013-01-24 01:36:00,9.2,-2.0,30.49,NNW,347,12.0,-999.0,62,-99.99,,,0.00,0,weatherlink.com 1.10,2013-01-24 07:36:00,
2013-01-24 01:51:00,9.0,-2.0,30.49,North,355,12.0,-999.0,62,-99.99,,,0.00,0,weatherlink.com 1.10,2013-01-24 07:51:00,
2013-01-24 02:06:00,8.4,-2.0,30.51,North,5,11.0,-999.0,63,-99.99,,,0.00,0,weatherlink.com 1.10,2013-01-24 08:06:00,
2013-01-24 02:21:00,8.1,-2.0,30.51,NNW,340,10.0,-999.0,63,-99.99,,,0.00,0,weatherlink.com 1.10,2013-01-24 08:21:00,
2013-01-24 02:36:00,7.9,-3.0,30.52,North,360,12.0,-999.0,62,-99.99,,,0.00,0,weatherlink.com 1.10,2013-01-24 08:36:00,
2013-01-24 02:51:00,7.6,-3.0,30.52,North,355,10.0,-999.0,61,-99.99,,,0.00,0,weatherlink.com 1.10,2013-01-24 08:51:00,
2013-01-24 03:06:00,7.4,-4.0,30.53,NNE,13,9.0,-999.0,59,-99.99,,,0.00,0,weatherlink.com 1.10,2013-01-24 09:06:00,
2013-01-24 03:21:00,6.7,-4.0,30.53,North,5,11.0,-999.0,63,-99.99,,,0.00,0,weatherlink.com 1.10,2013-01-24 09:21:00,
2013-01-24 03:36:00,6.5,-5.0,30.55,NNE,30,12.0,-999.0,60,-99.99,,,0.00,0,weatherlink.com 1.10,2013-01-24 09:36:00,
2013-01-24 03:52:00,6.5,-5.0,30.55,NNE,24,9.0,-999.0,59,-99.99,,,0.00,0,weatherlink.com 1.10,2013-01-24 09:52:00,
2013-01-24 04:07:00,6.1,-5.0,30.56,North,11,10.0,-999.0,61,-99.99,,,0.00,0,weatherlink.com 1.10,2013-01-24 10:07:00,
2013-01-24 04:22:00,6.0,-6.0,30.56,NNE,21,13.0,-999.0,58,-99.99,,,0.00,0,weatherlink.com 1.10,2013-01-24 10:22:00,
2013-01-24 04:37:00,5.8,-6.0,30.58,North,5,12.0,-999.0,59,-99.99,,,0.00,0,weatherlink.com 1.10,2013-01-24 10:37:00,
2013-01-24 04:52:00,5.6,-6.0,30.57,North,360,16.0,-999.0,59,-99.99,,,0.00,0,weatherlink.com 1.10,2013-01-24 10:52:00,
2013-01-24 05:07:00,5.2,-7.0,30.58,North,5,14.0,-999.0,58,-99.99,,,0.00,0,weatherlink.com 1.10,2013-01-24 11:07:00,
2013-01-24 05:22:00,5.2,-7.0,30.58,North,360,15.0,-999.0,58,-99.99,,,0.00,0,weatherlink.com 1.10,2013-01-24 11:22:00,
2013-01-24 05:37:00,5.2,-7.0,30.60,NE,34,6.0,-999.0,58,-99.99,,,0.00,0,weatherlink.com 1.10,2013-01-24 11:37:00,
2013-01-24 05:52:00,5.2,-6.0,30.59,NNE,17,10.0,-999.0,60,-99.99,,,0.00,0,weatherlink.com 1.10,2013-01-24 11:52:00,
2013-01-24 06:07:00,4.8,-7.0,30.60,NNE,23,9.0,-999.0,59,-99.99,,,0.00,0,weatherlink.com 1.10,2013-01-24 12:07:00,
2013-01-24 06:22:00,4.7,-7.0,30.60,NNE,21,5.0,-999.0,59,-99.99,,,0.00,0,weatherlink.com 1.10,2013-01-24 12:22:00,
2013-01-24 06:37:00,4.7,-7.0,30.61,NNE,19,2.0,-999.0,60,-99.99,,,0.00,0,weatherlink.com 1.10,2013-01-24 12:37:00,
2013-01-24 06:52:00,4.7,-7.0,30.61,NNE,19,6.0,-999.0,60,-99.99,,,0.00,0,weatherlink.com 1.10,2013-01-24 12:52:00,
2013-01-24 07:08:00,5.0,-6.0,30.61,NNE,24,9.0,-999.0,61,-99.99,,,0.00,0,weatherlink.com 1.10,2013-01-24 13:08:00,
2013-01-24 07:23:00,5.2,-6.0,30.62,NNE,20,6.0,-999.0,60,-99.99,,,0.00,5,weatherlink.com 1.10,2013-01-24 13:23:00,
2013-01-24 07:38:00,5.2,-6.0,30.61,NNE,30,1.0,-999.0,60,-99.99,,,0.00,14,weatherlink.com 1.10,2013-01-24 13:38:00,
2013-01-24 07:53:00,5.2,-6.0,30.62,NE,42,3.0,-999.0,59,-99.99,,,0.00,33,weatherlink.com 1.10,2013-01-24 13:53:00,
2013-01-24 08:08:00,5.6,-6.0,30.64,ENE,73,10.0,-999.0,58,-99.99,,,0.00,62,weatherlink.com 1.10,2013-01-24 14:08:00,
2013-01-24 08:23:00,5.6,-7.0,30.64,NE,44,9.0,-999.0,56,-99.99,,,0.00,72,weatherlink.com 1.10,2013-01-24 14:23:00,
2013-01-24 08:38:00,5.8,-7.0,30.65,NE,51,9.0,-999.0,57,-99.99,,,0.00,90,weatherlink.com 1.10,2013-01-24 14:38:00,
2013-01-24 08:53:00,6.3,-6.0,30.66,NNE,29,12.0,-999.0,57,-99.99,,,0.00,109,weatherlink.com 1.10,2013-01-24 14:53:00,
2013-01-24 09:08:00,6.5,-6.0,30.67,NE,49,5.0,-999.0,57,-99.99,,,0.00,146,weatherlink.com 1.10,2013-01-24 15:08:00,
2013-01-24 09:23:00,6.9,-6.0,30.66,NE,56,10.0,-999.0,57,-99.99,,,0.00,174,weatherlink.com 1.10,2013-01-24 15:23:00,
2013-01-24 09:38:00,7.2,-6.0,30.66,NE,54,8.0,-999.0,56,-99.99,,,0.00,209,weatherlink.com 1.10,2013-01-24 15:38:00,
2013-01-24 09:53:00,7.7,-6.0,30.66,NE,42,7.0,-999.0,55,-99.99,,,0.00,258,weatherlink.com 1.10,2013-01-24 15:53:00,
2013-01-24 10:08:00,8.4,-5.0,30.64,ENE,65,9.0,-999.0,55,-99.99,,,0.00,257,weatherlink.com 1.10,2013-01-24 16:08:00,
2013-01-24 10:23:00,8.8,-5.0,30.64,NNE,28,10.0,-999.0,54,-99.99,,,0.00,257,weatherlink.com 1.10,2013-01-24 16:23:00,
2013-01-24 10:39:00,9.7,-4.0,30.65,ENE,59,4.0,-999.0,54,-99.99,,,0.00,283,weatherlink.com 1.10,2013-01-24 16:39:00,
2013-01-24 10:54:00,10.2,-4.0,30.65,NE,50,5.0,-999.0,53,-99.99,,,0.00,301,weatherlink.com 1.10,2013-01-24 16:54:00,
2013-01-24 11:09:00,11.2,-3.0,30.63,ENE,69,5.0,-999.0,53,-99.99,,,0.00,388,weatherlink.com 1.10,2013-01-24 17:09:00,
2013-01-24 11:24:00,12.4,-3.0,30.63,NE,51,9.0,-999.0,51,-99.99,,,0.00,374,weatherlink.com 1.10,2013-01-24 17:24:00,
2013-01-24 11:39:00,12.6,-3.0,30.61,NE,46,8.0,-999.0,50,-99.99,,,0.00,396,weatherlink.com 1.10,2013-01-24 17:39:00,
2013-01-24 11:54:00,14.0,-3.0,30.60,ENE,67,6.0,-999.0,48,-99.99,,,0.00,362,weatherlink.com 1.10,2013-01-24 17:54:00,
2013-01-24 12:09:00,15.1,-2.0,30.60,ENE,67,5.0,-999.0,48,-99.99,,,0.00,388,weatherlink.com 1.10,2013-01-24 18:09:00,
2013-01-24 12:24:00,15.7,-1.0,30.60,ENE,59,6.0,-999.0,47,-99.99,,,0.00,336,weatherlink.com 1.10,2013-01-24 18:24:00,
2013-01-24 12:39:00,16.1,-2.0,30.59,ENE,62,6.0,-999.0,45,-99.99,,,0.00,322,weatherlink.com 1.10,2013-01-24 18:39:00,
2013-01-24 12:54:00,16.5,-1.0,30.58,ENE,59,8.0,-999.0,46,-99.99,,,0.00,325,weatherlink.com 1.10,2013-01-24 18:54:00,
2013-01-24 13:09:00,17.3,-1.0,30.57,East,88,8.0,-999.0,44,-99.99,,,0.00,380,weatherlink.com 1.10,2013-01-24 19:09:00,
2013-01-24 13:24:00,18.0,-1.0,30.56,ENE,61,1.0,-999.0,44,-99.99,,,0.00,274,weatherlink.com 1.10,2013-01-24 19:24:00,
2013-01-24 13:39:00,18.4,-1.0,30.56,East,79,6.0,-999.0,43,-99.99,,,0.00,294,weatherlink.com 1.10,2013-01-24 19:39:00,
2013-01-24 13:54:00,18.6,-1.0,30.54,East,90,4.0,-999.0,43,-99.99,,,0.00,234,weatherlink.com 1.10,2013-01-24 19:54:00,
2013-01-24 14:10:00,18.9,0.0,30.54,ESE,122,6.0,-999.0,44,-99.99,,,0.00,204,weatherlink.com 1.10,2013-01-24 20:10:00,
2013-01-24 14:25:00,19.2,0.0,30.54,SE,124,5.0,-999.0,44,-99.99,,,0.00,188,weatherlink.com 1.10,2013-01-24 20:25:00,
2013-01-24 14:40:00,19.9,0.0,30.53,NE,50,0.0,-999.0,42,-99.99,,,0.00,190,weatherlink.com 1.10,2013-01-24 20:40:00,
2013-01-24 14:55:00,20.2,1.0,30.53,SE,143,9.0,-999.0,43,-99.99,,,0.00,153,weatherlink.com 1.10,2013-01-24 20:55:00,
2013-01-24 15:10:00,20.6,1.0,30.51,East,81,5.0,-999.0,42,-99.99,,,0.00,142,weatherlink.com 1.10,2013-01-24 21:10:00,
2013-01-24 15:25:00,21.0,1.0,30.50,SE,129,9.0,-999.0,42,-99.99,,,0.00,130,weatherlink.com 1.10,2013-01-24 21:25:00,
2013-01-24 15:40:00,21.0,1.0,30.49,ESE,103,11.0,-999.0,42,-99.99,,,0.00,90,weatherlink.com 1.10,2013-01-24 21:40:00,
2013-01-24 15:55:00,21.0,2.0,30.48,ESE,116,12.0,-999.0,43,-99.99,,,0.00,69,weatherlink.com 1.10,2013-01-24 21:55:00,
2013-01-24 16:10:00,20.6,2.0,30.49,East,100,10.0,-999.0,44,-99.99,,,0.00,53,weatherlink.com 1.10,2013-01-24 22:10:00,
2013-01-24 16:25:00,20.3,2.0,30.49,ESE,110,9.0,-999.0,44,-99.99,,,0.00,32,weatherlink.com 1.10,2013-01-24 22:25:00,
2013-01-24 16:40:00,20.0,2.0,30.47,East,96,11.0,-999.0,45,-99.99,,,0.00,16,weatherlink.com 1.10,2013-01-24 22:40:00,
2013-01-24 16:55:00,19.7,3.0,30.47,East,96,11.0,-999.0,48,-99.99,,,0.00,5,weatherlink.com 1.10,2013-01-24 22:55:00,
2013-01-24 17:10:00,19.4,3.0,30.46,ESE,109,7.0,-999.0,50,-99.99,,,0.00,0,weatherlink.com 1.10,2013-01-24 23:10:00,
2013-01-24 17:25:00,19.2,4.0,30.45,East,96,7.0,-999.0,52,-99.99,,,0.00,0,weatherlink.com 1.10,2013-01-24 23:25:00,
2013-01-24 17:41:00,19.2,5.0,30.45,East,100,5.0,-999.0,53,-99.99,,,0.00,0,weatherlink.com 1.10,2013-01-24 23:41:00,
2013-01-24 17:56:00,19.2,5.0,30.45,ESE,102,5.0,-999.0,55,-99.99,,,0.00,0,weatherlink.com 1.10,2013-01-24 23:56:00,
2013-01-24 18:11:00,18.9,5.0,30.44,East,100,5.0,-999.0,55,-99.99,,,0.00,0,weatherlink.com 1.10,2013-01-25 00:11:00,
2013-01-24 18:26:00,18.8,6.0,30.44,East,101,4.0,-999.0,57,-99.99,,,0.00,0,weatherlink.com 1.10,2013-01-25 00:26:00,
2013-01-24 18:41:00,19.1,6.0,30.42,ESE,102,6.0,-999.0,57,-99.99,,,0.00,0,weatherlink.com 1.10,2013-01-25 00:41:00,
2013-01-24 18:56:00,19.4,7.0,30.42,East,95,4.0,-999.0,58,-99.99,,,0.00,0,weatherlink.com 1.10,2013-01-25 00:56:00,
2013-01-24 19:12:00,19.2,7.0,30.42,East,96,3.0,-999.0,59,-99.99,,,0.00,0,weatherlink.com 1.10,2013-01-25 01:12:00,
2013-01-24 19:26:00,19.1,7.0,30.42,East,96,1.0,-999.0,60,-99.99,,,0.00,0,weatherlink.com 1.10,2013-01-25 01:26:00,
2013-01-24 19:41:00,18.6,7.0,30.41,East,97,2.0,-999.0,61,-99.99,,,0.00,0,weatherlink.com 1.10,2013-01-25 01:41:00,
2013-01-24 19:56:00,17.5,7.0,30.40,East,92,5.0,-999.0,63,-99.99,,,0.00,0,weatherlink.com 1.10,2013-01-25 01:56:00,
2013-01-24 20:11:00,17.7,8.0,30.38,East,90,3.0,-999.0,66,-99.99,,,0.00,0,weatherlink.com 1.10,2013-01-25 02:11:00,
2013-01-24 20:26:00,18.4,8.0,30.38,ENE,76,4.0,-999.0,65,-99.99,,,0.00,0,weatherlink.com 1.10,2013-01-25 02:26:00,
2013-01-24 20:41:00,18.9,9.0,30.38,East,81,5.0,-999.0,65,-99.99,,,0.00,0,weatherlink.com 1.10,2013-01-25 02:41:00,
2013-01-24 20:56:00,19.5,9.0,30.37,East,95,9.0,-999.0,64,-99.99,,,0.00,0,weatherlink.com 1.10,2013-01-25 02:56:00,
2013-01-24 21:12:00,20.2,8.0,30.37,ENE,78,5.0,-999.0,60,-99.99,,,0.00,0,weatherlink.com 1.10,2013-01-25 03:12:00,
2013-01-24 21:27:00,20.5,9.0,30.37,ESE,108,7.0,-999.0,60,-99.99,,,0.00,0,weatherlink.com 1.10,2013-01-25 03:27:00,
2013-01-24 21:42:00,21.1,8.0,30.37,ESE,108,7.0,-999.0,56,-99.99,,,0.00,0,weatherlink.com 1.10,2013-01-25 03:42:00,
2013-01-24 21:57:00,21.1,8.0,30.35,ESE,107,9.0,-999.0,56,-99.99,,,0.00,0,weatherlink.com 1.10,2013-01-25 03:57:00,
2013-01-24 22:12:00,21.1,8.0,30.34,SE,128,12.0,-999.0,56,-99.99,,,0.00,0,weatherlink.com 1.10,2013-01-25 04:12:00,
2013-01-24 22:27:00,21.0,8.0,30.34,SE,125,13.0,-999.0,57,-99.99,,,0.00,0,weatherlink.com 1.10,2013-01-25 04:27:00,
2013-01-24 22:42:00,21.1,8.0,30.34,SE,126,12.0,-999.0,57,-99.99,,,0.00,0,weatherlink.com 1.10,2013-01-25 04:42:00,
2013-01-24 22:57:00,21.3,8.0,30.32,SE,132,12.0,-999.0,57,-99.99,,,0.00,0,weatherlink.com 1.10,2013-01-25 04:57:00,
2013-01-24 23:12:00,21.4,8.0,30.32,SE,141,11.0,-999.0,56,-99.99,,,0.00,0,weatherlink.com 1.10,2013-01-25 05:12:00,
2013-01-24 23:27:00,21.4,8.0,30.30,SE,138,16.0,-999.0,56,-99.99,,,0.00,0,weatherlink.com 1.10,2013-01-25 05:27:00,
2013-01-24 23:42:00,21.4,8.0,30.29,SE,135,17.0,-999.0,57,-99.99,,,0.00,0,weatherlink.com 1.10,2013-01-25 05:42:00,
2013-01-24 23:57:00,21.6,8.0,30.28,ESE,114,7.0,-999.0,56,-99.99,,,0.00,0,weatherlink.com 1.10,2013-01-25 05:57:00,